SBI6505 UIII-UNOO

Flight info

Callsign SBI6505
Flight time N/A
Altitude 36000
Route BOGRA5D BOGRA A815 TUTEK M97 KESUM R229 NN G828 SZ A487 URUKI A844 RUMOD RUMOD6B
Aircraft A320/M-SDE3FGHIRWY/LB1

Departure

Time N/A
Airport Irkutsk International Airport (UIII)

Arrival

Time 2026-04-29 13:04
Airport Omsk Central Airport (UNOO)
Time Latitude Longitude Altitude Speed Heading
2026-04-29 11:58 56.13242 85.13417 36361 ft 422 kts 282°
2026-04-29 11:58 56.13737 85.08244 36360 ft 422 kts 282°
2026-04-29 11:58 56.14715 84.97852 36357 ft 422 kts 282°
2026-04-29 11:59 56.15691 84.87482 36358 ft 422 kts 282°
2026-04-29 11:59 56.16660 84.77105 36347 ft 421 kts 282°
2026-04-29 12:00 56.17621 84.66724 36354 ft 421 kts 282°
2026-04-29 12:00 56.18571 84.56350 36358 ft 421 kts 281°
2026-04-29 12:01 56.19507 84.46051 36365 ft 421 kts 281°
2026-04-29 12:01 56.20442 84.35678 36361 ft 420 kts 281°
2026-04-29 12:02 56.21356 84.25315 36346 ft 420 kts 281°
2026-04-29 12:02 56.22264 84.14960 36352 ft 419 kts 281°
2026-04-29 12:03 56.23168 84.04613 36352 ft 419 kts 279°
2026-04-29 12:03 56.23046 83.94135 36351 ft 424 kts 262°
2026-04-29 12:04 56.21726 83.83769 36348 ft 425 kts 260°
2026-04-29 12:04 56.20368 83.73437 36340 ft 425 kts 260°
2026-04-29 12:05 56.19015 83.63155 36338 ft 425 kts 260°
2026-04-29 12:05 56.17654 83.52824 36335 ft 425 kts 260°
2026-04-29 12:06 56.16284 83.42488 36334 ft 425 kts 260°
2026-04-29 12:06 56.14906 83.32166 36328 ft 425 kts 260°
2026-04-29 12:07 56.13597 83.21817 36329 ft 425 kts 261°
2026-04-29 12:07 56.12312 83.11480 36315 ft 425 kts 261°
2026-04-29 12:08 56.11005 83.01152 36315 ft 425 kts 260°
2026-04-29 12:08 56.09677 82.90837 36318 ft 425 kts 260°
2026-04-29 12:09 56.08335 82.80529 36321 ft 425 kts 260°
2026-04-29 12:09 56.06983 82.70224 36318 ft 425 kts 260°
2026-04-29 12:10 56.05564 82.60011 36309 ft 426 kts 258°
2026-04-29 12:10 56.04067 82.49772 36329 ft 425 kts 258°
2026-04-29 12:11 56.02569 82.39561 36333 ft 424 kts 258°
2026-04-29 12:11 56.01076 82.29360 36333 ft 423 kts 258°
2026-04-29 12:12 55.99588 82.19188 36331 ft 423 kts 258°
2026-04-29 12:12 55.98101 82.09022 36327 ft 423 kts 258°
2026-04-29 12:13 55.96603 81.98963 36323 ft 422 kts 257°
2026-04-29 12:13 55.95089 81.88868 36330 ft 421 kts 257°
2026-04-29 12:14 55.93573 81.78799 36329 ft 420 kts 257°
2026-04-29 12:14 55.92058 81.68752 36331 ft 419 kts 257°
2026-04-29 12:15 55.90537 81.58719 36326 ft 419 kts 257°
2026-04-29 12:15 55.89007 81.48703 36320 ft 419 kts 257°
2026-04-29 12:16 55.87467 81.38713 36314 ft 418 kts 257°
2026-04-29 12:16 55.85919 81.28785 36314 ft 418 kts 257°
2026-04-29 12:17 55.84354 81.18757 36311 ft 418 kts 257°
2026-04-29 12:17 55.82794 81.08790 36305 ft 418 kts 256°
2026-04-29 12:18 55.81228 80.98900 36307 ft 418 kts 256°
2026-04-29 12:18 55.79648 80.88956 36295 ft 418 kts 256°
2026-04-29 12:19 55.78061 80.79009 36295 ft 418 kts 256°
2026-04-29 12:19 55.76471 80.69060 36295 ft 418 kts 256°
2026-04-29 12:20 55.74864 80.59119 36298 ft 418 kts 256°
2026-04-29 12:20 55.73248 80.49195 36295 ft 419 kts 256°
2026-04-29 12:21 55.71628 80.39285 36295 ft 418 kts 255°
2026-04-29 12:21 55.70012 80.29425 36297 ft 418 kts 255°
2026-04-29 12:22 55.68367 80.19534 36300 ft 418 kts 255°
2026-04-29 12:22 55.66723 80.09670 36298 ft 417 kts 255°
2026-04-29 12:23 55.65074 79.99798 36297 ft 417 kts 255°
2026-04-29 12:23 55.63414 79.89952 36297 ft 417 kts 255°
2026-04-29 12:24 55.61768 79.80094 36279 ft 417 kts 255°
2026-04-29 12:24 55.60134 79.70249 36281 ft 417 kts 255°
2026-04-29 12:25 55.58497 79.60467 36277 ft 417 kts 255°
2026-04-29 12:26 55.55995 79.45735 36278 ft 417 kts 254°
2026-04-29 12:26 55.54320 79.35923 36278 ft 417 kts 254°
2026-04-29 12:27 55.52638 79.26118 36283 ft 417 kts 253°
2026-04-29 12:27 55.50948 79.16329 36287 ft 417 kts 253°
2026-04-29 12:28 55.49258 79.06548 36287 ft 417 kts 253°
2026-04-29 12:28 55.47549 78.96774 36280 ft 417 kts 253°
2026-04-29 12:29 55.45844 78.87094 36278 ft 417 kts 253°
2026-04-29 12:29 55.44122 78.77338 36277 ft 416 kts 253°
2026-04-29 12:30 55.42395 78.67608 36278 ft 416 kts 252°
2026-04-29 12:30 55.40660 78.57875 36278 ft 416 kts 252°
2026-04-29 12:31 55.38925 78.48158 36283 ft 416 kts 252°
2026-04-29 12:31 55.37179 78.38520 36269 ft 416 kts 252°
2026-04-29 12:32 55.36040 78.28592 36267 ft 416 kts 267°
2026-04-29 12:32 55.36539 78.18436 36269 ft 418 kts 275°
2026-04-29 12:33 55.37262 78.08279 36268 ft 418 kts 275°
2026-04-29 12:33 55.37959 77.98115 36266 ft 418 kts 275°
2026-04-29 12:34 55.38660 77.87956 36256 ft 419 kts 275°
2026-04-29 12:34 55.39356 77.77782 36259 ft 419 kts 275°
2026-04-29 12:35 55.40026 77.67675 36262 ft 419 kts 274°
2026-04-29 12:35 55.40695 77.57484 36259 ft 419 kts 274°
2026-04-29 12:36 55.41370 77.47286 36267 ft 419 kts 274°
2026-04-29 12:36 55.42033 77.37100 36267 ft 419 kts 274°
2026-04-29 12:37 55.42680 77.26914 36262 ft 418 kts 274°
2026-04-29 12:37 55.43306 77.16731 36254 ft 418 kts 274°
2026-04-29 12:38 55.43941 77.06538 36255 ft 418 kts 274°
2026-04-29 12:38 55.44573 76.96351 36247 ft 418 kts 273°
2026-04-29 12:39 55.45188 76.86219 36243 ft 418 kts 273°
2026-04-29 12:39 55.45789 76.76012 36235 ft 418 kts 273°
2026-04-29 12:40 55.46385 76.65808 36237 ft 418 kts 273°
2026-04-29 12:40 55.46974 76.55599 36234 ft 418 kts 273°
2026-04-29 12:41 55.47552 76.45381 36232 ft 419 kts 272°
2026-04-29 12:41 55.48120 76.35220 36230 ft 419 kts 272°
2026-04-29 12:42 55.48689 76.24993 36222 ft 419 kts 272°
2026-04-29 12:42 55.49245 76.14752 36222 ft 419 kts 272°
2026-04-29 12:43 55.49792 76.04507 36217 ft 419 kts 272°
2026-04-29 12:43 55.50235 75.95992 36224 ft 419 kts 271°
2026-04-29 12:44 55.50842 75.84051 36226 ft 420 kts 271°
2026-04-29 12:44 55.51362 75.73775 36219 ft 421 kts 271°
2026-04-29 12:45 55.51788 75.65210 36023 ft 421 kts 271°
2026-04-29 12:45 55.52121 75.58325 35681 ft 421 kts 271°
2026-04-29 12:45 55.52282 75.54912 35517 ft 421 kts 271°
2026-04-29 12:45 55.52524 75.49776 35267 ft 420 kts 271°
2026-04-29 12:46 55.52769 75.44630 35022 ft 420 kts 270°
2026-04-29 12:46 55.53013 75.39493 34778 ft 421 kts 270°
2026-04-29 12:46 55.53257 75.34346 34552 ft 421 kts 270°
2026-04-29 12:46 55.53497 75.29203 34306 ft 420 kts 270°
2026-04-29 12:47 55.53734 75.24058 33841 ft 420 kts 270°
2026-04-29 12:47 55.53967 75.18906 32918 ft 421 kts 270°
2026-04-29 12:47 55.54197 75.13735 31965 ft 423 kts 270°
2026-04-29 12:47 55.54427 75.08536 30992 ft 426 kts 270°
2026-04-29 12:48 55.54659 75.03296 29893 ft 430 kts 271°
2026-04-29 12:48 55.54892 74.98007 28644 ft 434 kts 271°
2026-04-29 12:48 55.55127 74.92659 27483 ft 437 kts 271°
2026-04-29 12:48 55.55361 74.87292 26294 ft 440 kts 272°
2026-04-29 12:49 55.55591 74.81895 25147 ft 442 kts 272°
2026-04-29 12:49 55.55817 74.76470 24040 ft 443 kts 272°
2026-04-29 12:49 55.56040 74.71038 22807 ft 444 kts 272°
2026-04-29 12:49 55.56264 74.65587 21749 ft 443 kts 272°
2026-04-29 12:50 55.56485 74.60223 20987 ft 434 kts 272°
2026-04-29 12:50 55.56702 74.54985 20141 ft 430 kts 272°
2026-04-29 12:50 55.56914 74.49745 19341 ft 425 kts 272°
2026-04-29 12:50 55.57120 74.44569 18571 ft 421 kts 272°
2026-04-29 12:51 55.57320 74.39437 17720 ft 416 kts 272°
2026-04-29 12:51 55.57513 74.34350 16895 ft 410 kts 271°
2026-04-29 12:51 55.57567 74.29421 15556 ft 396 kts 263°
2026-04-29 12:51 55.57039 74.24779 14807 ft 374 kts 251°
2026-04-29 12:52 55.56054 74.20568 14187 ft 368 kts 241°
2026-04-29 12:52 55.54644 74.16831 13482 ft 364 kts 230°
2026-04-29 12:52 55.52864 74.13712 12846 ft 359 kts 220°
2026-04-29 12:52 55.50965 74.10903 12214 ft 354 kts 220°
2026-04-29 12:53 55.49089 74.08124 11613 ft 349 kts 220°
2026-04-29 12:53 55.47279 74.05437 11438 ft 332 kts 220°
2026-04-29 12:53 55.45555 74.02879 11319 ft 315 kts 220°
2026-04-29 12:53 55.43919 74.00449 11195 ft 301 kts 220°
2026-04-29 12:54 55.42354 73.98130 11069 ft 288 kts 220°
2026-04-29 12:54 55.40853 73.95916 10952 ft 276 kts 220°
2026-04-29 12:54 55.39409 73.93786 10770 ft 266 kts 220°
2026-04-29 12:54 55.38004 73.91712 10535 ft 262 kts 220°
2026-04-29 12:55 55.36633 73.89690 10301 ft 260 kts 220°
2026-04-29 12:55 55.35248 73.87651 10104 ft 259 kts 219°
2026-04-29 12:55 55.33865 73.85615 9974 ft 259 kts 219°
2026-04-29 12:55 55.32481 73.83580 9840 ft 259 kts 220°
2026-04-29 12:56 55.31099 73.81548 9703 ft 259 kts 219°
2026-04-29 12:56 55.29614 73.79783 9574 ft 259 kts 207°
2026-04-29 12:56 55.27963 73.78454 9229 ft 262 kts 206°
2026-04-29 12:56 55.26296 73.77115 8723 ft 264 kts 206°
2026-04-29 12:57 55.24632 73.75774 8245 ft 265 kts 206°
2026-04-29 12:57 55.22964 73.74431 7906 ft 261 kts 205°
2026-04-29 12:57 55.21317 73.73104 7463 ft 261 kts 205°
2026-04-29 12:57 55.19669 73.71777 7046 ft 261 kts 205°
2026-04-29 12:58 55.18022 73.70454 6633 ft 260 kts 205°
2026-04-29 12:58 55.16377 73.69136 6201 ft 259 kts 205°
2026-04-29 12:58 55.14761 73.67841 5776 ft 258 kts 205°
2026-04-29 12:58 55.13135 73.66536 5350 ft 256 kts 205°
2026-04-29 12:59 55.11506 73.65231 4788 ft 260 kts 204°
2026-04-29 12:59 55.09833 73.63933 4257 ft 262 kts 200°
2026-04-29 12:59 55.08106 73.62991 3920 ft 257 kts 197°
2026-04-29 12:59 55.06435 73.62097 3761 ft 245 kts 197°
2026-04-29 13:00 55.04847 73.61247 3641 ft 232 kts 198°
2026-04-29 13:00 55.03344 73.60438 3543 ft 220 kts 198°
2026-04-29 13:00 55.01916 73.59667 3444 ft 209 kts 199°
2026-04-29 13:00 55.00704 73.58417 3344 ft 201 kts 226°
2026-04-29 13:01 55.00044 73.56329 3090 ft 204 kts 253°
2026-04-29 13:01 54.99733 73.53903 2774 ft 207 kts 254°
2026-04-29 13:01 54.99414 73.51441 2470 ft 208 kts 254°
2026-04-29 13:01 54.99101 73.49042 2181 ft 197 kts 253°
2026-04-29 13:02 54.98802 73.46769 1934 ft 187 kts 254°
2026-04-29 13:02 54.98521 73.44637 1690 ft 174 kts 253°
2026-04-29 13:02 54.98260 73.42661 1464 ft 160 kts 253°
2026-04-29 13:02 54.98026 73.40896 1257 ft 142 kts 253°
2026-04-29 13:03 54.97802 73.39258 998 ft 137 kts 255°
2026-04-29 13:03 54.97598 73.37670 821 ft 132 kts 252°
2026-04-29 13:03 54.97392 73.36108 715 ft 132 kts 252°
2026-04-29 13:03 54.97181 73.34545 523 ft 133 kts 254°
2026-04-29 13:04 54.96975 73.32970 379 ft 134 kts 254°
2026-04-29 13:04 54.96767 73.31444 310 ft 119 kts 256°
2026-04-29 13:04 54.96615 73.30304 315 ft 73 kts 258°
2026-04-29 13:04 54.96536 73.29709 318 ft 40 kts 257°
2026-04-29 13:05 54.96485 73.29318 321 ft 19 kts 257°
2026-04-29 13:05 54.96458 73.29167 321 ft 12 kts 229°
2026-04-29 13:05 54.96376 73.29169 320 ft 13 kts 166°
2026-04-29 13:05 54.96278 73.29210 320 ft 16 kts 167°
2026-04-29 13:06 54.96166 73.29256 321 ft 17 kts 167°
2026-04-29 13:06 54.96082 73.29308 319 ft 10 kts 131°
2026-04-29 13:06 54.96087 73.29416 318 ft 9 kts 76°
2026-04-29 13:06 54.96101 73.29518 320 ft 8 kts 77°
2026-04-29 13:07 54.96118 73.29645 318 ft 13 kts 77°
2026-04-29 13:07 54.96142 73.29832 319 ft 19 kts 77°
2026-04-29 13:07 54.96175 73.30078 316 ft 18 kts 77°
2026-04-29 13:07 54.96154 73.30216 316 ft 12 kts 143°
2026-04-29 13:08 54.96089 73.30297 317 ft 12 kts 141°
2026-04-29 13:08 54.96027 73.30385 317 ft 11 kts 140°
2026-04-29 13:08 54.95952 73.30491 316 ft 17 kts 141°
2026-04-29 13:08 54.95847 73.30636 315 ft 21 kts 141°
2026-04-29 13:09 54.95729 73.30801 315 ft 20 kts 141°
2026-04-29 13:09 54.95670 73.30941 315 ft 15 kts 93°
2026-04-29 13:09 54.95716 73.31095 314 ft 14 kts 46°
2026-04-29 13:09 54.95783 73.31217 313 ft 14 kts 46°
2026-04-29 13:10 54.95849 73.31335 312 ft 13 kts 46°
2026-04-29 13:10 54.95914 73.31452 311 ft 13 kts 46°
2026-04-29 13:10 54.95947 73.31513 311 ft 0 kts 46°
2026-04-29 13:12 54.95937 73.31493 311 ft 2 kts 49°
2026-04-29 13:12 54.95927 73.31471 310 ft 2 kts 69°
2026-04-29 13:12 54.95927 73.31443 311 ft 2 kts 101°
2026-04-29 13:12 54.95930 73.31416 309 ft 2 kts 104°
2026-04-29 13:13 54.95933 73.31394 311 ft 1 kts 103°
2026-04-29 13:13 54.95934 73.31393 311 ft 0 kts 103°